Total_Precipitation_Accumulation
0.00 0.00 0.00 0.01 0.03 0.07 0.08 0.09 0.13 0.14 0.16 0.23 0.35 0.56 0.77 0.89 1.08 1.21 1.19 1.31 1.71 2.11 2.42 2.70 2.85 3.07 3.36 3.60 3.79 4.05 4.44 4.54 4.28 4.21 4.12 3.99 3.66 3.48 3.16 2.79 2.47 2.36 2.33 2.46
0.00 0.01 0.01 0.01 0.02 0.05 0.05 0.07 0.13 0.15 0.18 0.25 0.30 0.52 0.73 0.76 0.97 1.11 1.20 1.37 1.55 1.77 2.25 2.52 2.53 2.76 2.97 3.41 3.86 4.17 4.16 4.06 3.78 3.84 4.11 4.32 4.25 3.76 3.20 2.85 2.68 2.33 2.22 2.28
0.01 0.02 0.01 0.01 0.01 0.02 0.07 0.10 0.13 0.15 0.19 0.30 0.39 0.79 0.92 0.84 0.94 1.04 1.12 1.29 1.44 1.61 1.81 2.12 2.14 2.22 2.41 2.87 3.34 3.45 3.29 3.23 3.07 3.12 3.41 3.59 3.78 3.54 3.16 2.84 2.56 2.30 2.17 2.10
0.01 0.01 0.01 0.02 0.02 0.02 0.06 0.06 0.07 0.12 0.24 0.42 0.48 0.93 1.16 1.16 1.21 1.08 1.12 1.17 1.44 1.60 1.64 1.80 1.85 1.89 1.93 2.03 2.27 2.44 2.56 2.61 2.62 2.66 2.84 2.98 3.07 2.98 2.86 2.77 2.49 2.22 1.95 1.86
0.02 0.02 0.02 0.03 0.04 0.03 0.05 0.05 0.06 0.12 0.22 0.43 0.47 0.68 1.12 1.37 1.39 1.15 1.11 1.12 1.27 1.30 1.37 1.49 1.57 1.57 1.62 1.75 1.94 2.14 2.38 2.50 2.57 2.53 2.58 2.73 2.96 2.91 2.70 2.50 2.41 2.22 1.99 1.79
0.03 0.04 0.04 0.04 0.04 0.03 0.05 0.06 0.12 0.19 0.30 0.69 0.60 0.67 1.07 1.30 1.14 1.10 1.02 0.95 1.03 1.03 1.14 1.31 1.42 1.47 1.50 1.58 1.80 1.98 2.15 2.13 2.17 2.23 2.26 2.26 2.36 2.41 2.29 2.15 2.07 1.90 1.73 1.61
0.12 0.10 0.08 0.05 0.05 0.06 0.08 0.14 0.48 0.89 1.07 1.04 0.63 0.73 1.18 1.08 0.90 0.90 0.92 0.94 1.01 1.00 0.96 1.09 1.27 1.30 1.42 1.52 1.63 1.72 1.81 1.84 1.80 1.81 1.75 1.72 1.80 1.96 1.95 1.85 1.82 1.71 1.51 1.37
0.21 0.24 0.16 0.09 0.08 0.09 0.13 0.22 0.62 0.90 0.91 0.90 0.76 1.14 1.35 0.93 0.83 0.79 0.73 0.73 0.74 0.72 0.70 0.78 0.91 1.03 1.14 1.28 1.36 1.41 1.47 1.57 1.61 1.61 1.64 1.59 1.62 1.72 1.80 1.81 1.68 1.59 1.38 1.25
0.14 0.16 0.11 0.08 0.07 0.11 0.21 0.28 0.31 0.51 0.61 0.95 1.14 1.35 1.20 0.90 0.85 0.77 0.77 0.74 0.72 0.68 0.64 0.66 0.73 0.82 0.82 0.91 1.01 1.07 1.13 1.24 1.37 1.39 1.51 1.47 1.45 1.56 1.70 1.74 1.69 1.64 1.57 1.48
0.07 0.09 0.11 0.08 0.10 0.15 0.17 0.21 0.28 0.43 0.65 0.96 1.16 1.44 1.61 1.40 1.18 0.99 1.00 0.90 0.78 0.66 0.58 0.60 0.60 0.61 0.59 0.69 0.86 0.92 1.09 1.17 1.21 1.22 1.17 1.10 1.24 1.42 1.56 1.57 1.52 1.62 1.66 1.66
0.07 0.07 0.10 0.13 0.14 0.16 0.19 0.22 0.29 0.37 0.45 0.74 1.15 1.30 1.09 1.17 1.14 1.13 0.98 0.86 0.77 0.67 0.55 0.56 0.62 0.65 0.62 0.64 0.78 0.82 0.90 1.07 1.14 1.11 1.03 1.00 1.05 1.17 1.26 1.31 1.34 1.48 1.55 1.61
0.08 0.09 0.15 0.20 0.17 0.15 0.18 0.21 0.31 0.48 0.51 0.61 0.91 1.11 0.76 0.84 0.85 0.77 0.72 0.62 0.55 0.55 0.48 0.49 0.59 0.70 0.76 0.82 0.84 0.78 0.78 0.83 0.96 0.99 0.96 0.96 0.98 0.97 0.96 1.00 1.10 1.21 1.30 1.33
0.11 0.15 0.28 0.49 0.49 0.30 0.24 0.20 0.24 0.32 0.41 0.48 0.75 1.01 0.81 0.75 0.78 0.77 0.73 0.67 0.57 0.51 0.51 0.55 0.64 0.69 0.70 0.81 0.91 0.80 0.77 0.80 0.89 0.91 0.94 0.98 0.97 0.92 0.87 0.89 0.97 1.00 0.99 1.01
0.10 0.12 0.24 0.48 0.43 0.33 0.30 0.26 0.28 0.33 0.43 0.45 0.52 0.78 0.90 0.88 0.83 0.78 0.71 0.64 0.59 0.48 0.46 0.52 0.62 0.75 0.73 0.69 0.78 0.73 0.71 0.76 0.85 0.97 1.11 1.09 0.99 0.93 0.89 0.88 0.90 0.93 0.88 0.88
0.10 0.10 0.12 0.17 0.22 0.30 0.32 0.26 0.26 0.27 0.30 0.46 0.43 0.56 0.81 0.87 0.79 0.79 0.74 0.54 0.48 0.51 0.47 0.45 0.53 0.69 0.73 0.74 0.75 0.69 0.72 0.74 0.77 0.92 1.06 1.10 1.10 1.08 1.03 0.94 0.88 0.88 0.89 0.82
0.18 0.17 0.19 0.19 0.26 0.31 0.31 0.27 0.22 0.19 0.20 0.26 0.32 0.50 0.58 0.53 0.61 0.66 0.60 0.54 0.51 0.56 0.54 0.50 0.45 0.50 0.58 0.65 0.69 0.67 0.65 0.66 0.72 0.80 0.89 1.02 1.11 1.11 1.07 0.95 0.91 0.95 0.93 0.94
0.31 0.32 0.29 0.30 0.30 0.35 0.40 0.32 0.26 0.22 0.17 0.24 0.41 0.60 0.54 0.50 0.61 0.58 0.50 0.47 0.55 0.52 0.44 0.40 0.39 0.40 0.44 0.48 0.54 0.68 0.66 0.62 0.69 0.78 0.83 0.96 1.08 1.10 1.06 0.94 0.94 0.97 0.95 0.97
0.29 0.38 0.38 0.39 0.49 0.62 0.42 0.24 0.25 0.26 0.22 0.21 0.32 0.45 0.50 0.46 0.50 0.53 0.46 0.43 0.41 0.38 0.33 0.28 0.27 0.31 0.35 0.38 0.41 0.51 0.62 0.69 0.72 0.79 0.86 0.95 1.03 1.11 1.15 1.10 1.05 1.08 1.09 1.05
0.28 0.41 0.46 0.52 0.65 0.54 0.35 0.31 0.33 0.37 0.39 0.32 0.35 0.41 0.47 0.48 0.48 0.55 0.47 0.43 0.38 0.32 0.29 0.30 0.30 0.30 0.37 0.46 0.49 0.57 0.70 0.78 0.82 0.83 0.93 0.96 1.04 1.19 1.27 1.19 1.15 1.18 1.16 1.07
0.34 0.41 0.55 0.60 0.77 0.72 0.54 0.38 0.35 0.45 0.79 0.56 0.45 0.43 0.48 0.54 0.62 0.71 0.55 0.48 0.41 0.35 0.30 0.27 0.30 0.32 0.39 0.52 0.63 0.73 0.86 0.98 0.98 0.93 0.95 1.01 1.07 1.20 1.33 1.36 1.35 1.31 1.28 1.19
0.72 0.66 0.61 0.70 0.85 0.73 0.52 0.42 0.49 0.84 1.04 0.69 0.60 0.55 0.59 0.65 0.63 0.60 0.55 0.45 0.38 0.34 0.34 0.32 0.34 0.39 0.46 0.53 0.72 0.92 0.99 1.03 1.04 1.04 1.02 1.11 1.19 1.35 1.52 1.66 1.61 1.58 1.52 1.48
0.92 0.96 0.90 0.94 1.09 1.07 0.66 0.55 0.81 1.00 0.81 0.74 0.73 0.70 0.68 0.60 0.54 0.50 0.52 0.46 0.37 0.35 0.37 0.41 0.48 0.52 0.52 0.54 0.69 0.88 0.97 0.99 1.08 1.12 1.19 1.24 1.36 1.39 1.51 1.86 1.88 1.90 1.89 1.75
1.00 1.12 1.21 1.20 1.20 0.98 0.89 0.93 0.95 0.98 0.86 0.81 0.67 0.59 0.56 0.56 0.54 0.57 0.62 0.58 0.45 0.37 0.40 0.44 0.53 0.63 0.70 0.78 0.88 1.02 1.06 1.12 1.20 1.31 1.43 1.47 1.51 1.61 1.72 1.85 1.90 1.93 1.92 1.83
0.96 0.90 1.20 1.35 1.25 1.13 1.01 0.93 0.98 1.11 0.96 0.76 0.63 0.57 0.57 0.57 0.51 0.46 0.49 0.52 0.47 0.41 0.46 0.51 0.54 0.74 0.90 1.00 1.07 1.14 1.21 1.33 1.46 1.60 1.71 1.77 1.77 1.74 1.79 1.93 1.92 1.89 1.86 1.82
0.84 0.88 1.19 1.43 1.39 1.38 1.20 0.91 0.85 0.89 0.79 0.65 0.65 0.63 0.62 0.64 0.57 0.46 0.42 0.43 0.46 0.50 0.55 0.60 0.68 0.80 0.88 1.02 1.18 1.31 1.47 1.62 1.69 1.71 1.74 1.75 1.82 1.93 1.99 1.96 1.94 1.95 1.97 1.89
0.94 0.97 1.23 1.49 1.33 1.31 1.24 0.98 0.86 0.75 0.65 0.62 0.74 0.77 0.65 0.64 0.64 0.58 0.49 0.49 0.51 0.55 0.63 0.71 0.82 0.96 1.05 1.19 1.36 1.48 1.64 1.85 2.02 1.97 1.89 1.91 1.94 2.01 2.03 2.00 1.92 1.91 1.84 1.72